Regional Weather Roundup
Issued by NWS Columbia, SC

Home | Current Version | Previous Version | Text Only | Print | Product List | Glossary On
Versions: 1 2 3 4 5 6 7 8 9 10 11 12 13 14 15 16 17 18 19 20 21 22 23 24 25 26 27 28
000
ASUS42 KCAE 252110
RWRCAE
REGIONAL WEATHER ROUNDUP
NATIONAL WEATHER SERVICE COLUMBIA SC
500 PM EDT SAT OCT 25 2014

NOTE: "FAIR" INDICATES FEW OR NO CLOUDS BELOW 12,000 FEET WITH NO
SIGNIFICANT WEATHER AND/OR OBSTRUCTIONS TO VISIBILITY.

NOT ALL STATIONS ARE QUALITY CONTROLLED BY THE NATIONAL
WEATHER SERVICE. USE DATA WITH CAUTION...ESPECIALLY
DEWPOINT OBSERVATIONS.

SCZ001>056-GAZ040-063>065-077-252200-
...UPSTATE SOUTH CAROLINA...

CITY           SKY/WX    TMP DP  RH WIND       PRES   REMARKS
ANDERSON       SUNNY     73  47  39 SW8       29.97F
LIBERTY        FAIR      73  50  43 MISG      29.97S
SPARTANBURG    FAIR      77  37  24 SW6       29.95F
CLEMSON        SUNNY     74  41  30 SW5       29.98F
GREENVILLE     SUNNY     73  40  30 SW9       29.97F
GREENWOOD      SUNNY     73  42  32 W8        29.99S
GREER          SUNNY     73  44  35 SW13      29.95F
ROCK HILL      SUNNY     73  33  23 W7        29.96F


...CENTRAL SOUTH CAROLINA...

CITY           SKY/WX    TMP DP  RH WIND       PRES   REMARKS
COLUMBIA APT   SUNNY     75  39  27 NW7       29.95F
COLUMBIA OWENS SUNNY     74  41  30 NW6       29.96F
DARLINGTON     SUNNY     73  36  25 NW3       29.94F
FLORENCE       SUNNY     74  38  27 NW7       29.93F
MCENTIRE ANGB  SUNNY     74  41  30 W6        29.96S
ORANGEBURG     SUNNY     75  38  26 NW5       29.95F
SUMTER SHAW    SUNNY     74  42  32 NW6       29.93F
NEWBERRY       FAIR      73  45  35 W8        29.99S
AIKEN          FAIR      75  45  33 NW8       29.99F
BARNWELL       FAIR      77  43  29 NW3       29.96F
MANNING        FAIR      73  46  38 CALM      29.94F
CAMDEN         FAIR      72  37  28 W5        29.96S
LANCASTER      FAIR      72  41  33 W6        29.96S
WINNSBORO      FAIR      72  41  33 W3        29.96S


...EASTERN AND COASTAL SOUTH CAROLINA...

CITY           SKY/WX    TMP DP  RH WIND       PRES   REMARKS
MYRTLE BEACH   SUNNY     75  43  31 W10       29.93
N MYRTLE BCH   SUNNY     72  51  47 SW8       29.92S
CONWAY         FAIR      73  45  35 CALM      29.93S HAZE
FLORENCE       SUNNY     74  38  27 NW7       29.93F
DARLINGTON     SUNNY     73  36  25 NW3       29.94F
CHARLESTON APT SUNNY     77  45  32 NW6       29.95S
MOUNT PLEASANT FAIR      73  45  35 NW7       29.94S
WALTERBORO     CLEAR     75  37  25 W5        29.96S
BEAUFORT       SUNNY     75  45  34 NW6       29.95F


...EASTERN GEORGIA...

CITY           SKY/WX    TMP DP  RH WIND       PRES   REMARKS
AUGUSTA BUSH F SUNNY     78  37  22 NW7       29.95F
AUGUSTA DANIEL SUNNY     76  36  23 VRB3      29.97F
THOMSON        SUNNY     76  51  42 W7        30.03S
WASHINGTON     FAIR      77  50  38 W6        29.98F
CLAXTON        FAIR      77  46  33 CALM      29.96F
SYLVANIA       CLEAR     82  51  34 CALM      29.96F
SAVANNAH       SUNNY     77  43  29 NW6       29.96F


...SOUTHERN NORTH CAROLINA...

CITY           SKY/WX    TMP DP  RH WIND       PRES   REMARKS
CHARLOTTE      SUNNY     74  33  22 SW6       29.95F
MONROE         SUNNY     73  34  23 W8        29.94F
WADESBORO      CLEAR    N/A N/A N/A W3        29.93S
ROCKINGHAM     CLEAR     72  38  28 W3        29.93S
RUTHERFORDTON  SUNNY     73  38  27 SW12      29.96S
ASHEVILLE      SUNNY     70  33  25 N8        30.01S

$$



USA.gov is the U.S. government's official web portal to all federal, state and local government web resources and services.